| time (UTC) | temp C | wind direction | speed KPH | gust KPH | rain 1hr cm | rain 24hr cm | rain mn cm | humidity % | barometer mb |
| 20260504110710 | 5 | 80 | 1.6 | 3.2 | 0.00 | 0.00 | 0.00 | 94 | 1009.9 |
| 20260504110207 | 5 | 64 | 3.2 | 4.8 | 0.00 | 0.00 | 0.00 | 95 | 1009.7 |
| 20260504100131 | 5 | 137 | 3.2 | 4.8 | 0.00 | 0.00 | 0.00 | 93 | 1009.8 |
| 20260504081524 | 5 | 93 | 1.6 | 3.2 | 0.00 | 0.00 | 0.00 | 87 | 1009.9 |
| 20260504081019 | 5 | 136 | 3.2 | 3.2 | 0.00 | 0.00 | 0.00 | 87 | 1010.0 |
| 20260504080516 | 5 | 104 | 3.2 | 4.8 | 0.00 | 0.00 | 0.00 | 87 | 1009.9 |
| 20260504050335 | 5 | 42 | 3.2 | 3.2 | 0.00 | 0.00 | 0.00 | 84 | 1010.4 |
| 20260504045832 | 5 | 66 | 0.0 | 1.6 | 0.00 | 0.00 | 0.00 | 84 | 1010.3 |
| 20260504045332 | 5 | 141 | 0.0 | 1.6 | 0.00 | 0.00 | 0.00 | 84 | 1010.5 |
| 20260504044829 | 5 | 235 | 0.0 | 1.6 | 0.00 | 0.00 | 0.00 | 83 | 1010.5 |
| 20260504044326 | 5 | 18 | 0.0 | 3.2 | 0.00 | 0.00 | 0.00 | 83 | 1010.4 |
| 20260504043824 | 5 | 11 | 0.0 | 3.2 | 0.00 | 0.00 | 0.00 | 83 | 1010.4 |
| 20260504043320 | 4 | 284 | 3.2 | 3.2 | 0.00 | 0.00 | 0.00 | 86 | 1010.4 |
| 20260504042818 | 4 | 354 | 0.0 | 3.2 | 0.00 | 0.00 | 0.00 | 86 | 1010.3 |
| 20260504042314 | 4 | 1 | 3.2 | 3.2 | 0.00 | 0.00 | 0.00 | 86 | 1010.3 |
| 20260504041810 | 4 | 320 | 0.0 | 3.2 | 0.00 | 0.00 | 0.00 | 87 | 1010.5 |
| 20260504041307 | 4 | 329 | 0.0 | 1.6 | 0.00 | 0.00 | 0.00 | 86 | 1010.3 |
| 20260504040803 | 4 | 44 | 3.2 | 4.8 | 0.00 | 0.00 | 0.00 | 84 | 1010.4 |
| 20260504040301 | 4 | 334 | 1.6 | 3.2 | 0.00 | 0.00 | 0.00 | 84 | 1010.2 |
| 20260504035756 | 4 | 350 | 1.6 | 3.2 | 0.00 | 0.00 | 0.00 | 85 | 1010.3 |
| 20260504035254 | 4 | 209 | 0.0 | 1.6 | 0.00 | 0.00 | 0.00 | 86 | 1010.3 |
| 20260504034751 | 4 | 293 | 0.0 | 1.6 | 0.00 | 0.00 | 0.00 | 84 | 1010.3 |
| 20260504034248 | 4 | 55 | 1.6 | 3.2 | 0.00 | 0.00 | 0.00 | 84 | 1010.3 |
| 20260504033746 | 4 | 50 | 3.2 | 3.2 | 0.00 | 0.00 | 0.00 | 84 | 1010.1 |
| 20260504033243 | 4 | 38 | 3.2 | 6.4 | 0.00 | 0.00 | 0.00 | 84 | 1010.2 |
| 20260504032740 | 4 | 64 | 3.2 | 4.8 | 0.00 | 0.00 | 0.00 | 84 | 1010.1 |
| 20260504032237 | 5 | 33 | 3.2 | 4.8 | 0.00 | 0.00 | 0.00 | 82 | 1010.4 |
| 20260504031733 | 5 | 53 | 0.0 | 1.6 | 0.00 | 0.00 | 0.00 | 80 | 1010.4 |
| 20260504031231 | 5 | 19 | 1.6 | 3.2 | 0.00 | 0.00 | 0.00 | 81 | 1010.4 |
| 20260504030727 | 5 | 345 | 0.0 | 1.6 | 0.00 | 0.00 | 0.00 | 81 | 1010.4 |
| 20260504030224 | 5 | 48 | 0.0 | 3.2 | 0.00 | 0.00 | 0.00 | 80 | 1010.5 |
| 20260504025721 | 4 | 331 | 3.2 | 3.2 | 0.00 | 0.00 | 0.00 | 81 | 1010.3 |
| 20260504025217 | 5 | 32 | 3.2 | 4.8 | 0.00 | 0.00 | 0.00 | 80 | 1010.2 |
| 20260504024714 | 5 | 6 | 4.8 | 4.8 | 0.00 | 0.00 | 0.00 | 79 | 1010.3 |
| 20260504024211 | 6 | 17 | 3.2 | 4.8 | 0.00 | 0.00 | 0.00 | 75 | 1010.2 |
| 20260504023708 | 6 | 235 | 1.6 | 4.8 | 0.00 | 0.00 | 0.00 | 72 | 1010.4 |
| 20260504023203 | 6 | 238 | 6.4 | 8.0 | 0.00 | 0.00 | 0.00 | 76 | 1010.5 |
| 20260504022700 | 5 | 226 | 4.8 | 4.8 | 0.00 | 0.00 | 0.00 | 81 | 1010.4 |
| 20260504022156 | 5 | 118 | 4.8 | 6.4 | 0.00 | 0.00 | 0.00 | 78 | 1010.5 |
| 20260504021654 | 6 | 119 | 8.0 | 8.0 | 0.00 | 0.00 | 0.00 | 74 | 1010.1 |
| 20260504021150 | 6 | 73 | 1.6 | 3.2 | 0.00 | 0.00 | 0.00 | 72 | 1010.0 |
| 20260504020648 | 6 | 26 | 1.6 | 3.2 | 0.00 | 0.00 | 0.00 | 71 | 1010.0 |
| 20260504020143 | 6 | 213 | 1.6 | 3.2 | 0.00 | 0.00 | 0.00 | 71 | 1009.9 |
| 20260504015641 | 6 | 66 | 0.0 | 1.6 | 0.00 | 0.00 | 0.00 | 72 | 1009.8 |
| 20260504015137 | 6 | 64 | 3.2 | 4.8 | 0.00 | 0.00 | 0.00 | 73 | 1009.8 |
| 20260504014632 | 6 | 53 | 1.6 | 3.2 | 0.00 | 0.00 | 0.00 | 69 | 1009.6 |
| 20260504014130 | 7 | 159 | 0.0 | 0.0 | 0.00 | 0.00 | 0.00 | 68 | 1009.8 |
| 20260504013627 | 7 | 165 | 0.0 | 1.6 | 0.00 | 0.00 | 0.00 | 69 | 1009.6 |
| 20260504013124 | 7 | 77 | 0.0 | 3.2 | 0.00 | 0.00 | 0.00 | 66 | 1009.7 |
| 20260504012621 | 8 | 91 | 1.6 | 3.2 | 0.00 | 0.00 | 0.00 | 64 | 1009.6 |
| 20260504012120 | 8 | 59 | 3.2 | 4.8 | 0.00 | 0.00 | 0.00 | 60 | 1009.5 |
| 20260504011616 | 8 | 33 | 3.2 | 4.8 | 0.00 | 0.00 | 0.00 | 58 | 1009.5 |
| 20260504011112 | 9 | 56 | 3.2 | 3.2 | 0.00 | 0.00 | 0.00 | 55 | 1009.5 |
| 20260504010608 | 9 | 225 | 3.2 | 4.8 | 0.00 | 0.00 | 0.00 | 57 | 1009.2 |
| 20260504010104 | 9 | 174 | 0.0 | 3.2 | 0.00 | 0.00 | 0.00 | 54 | 1009.4 |
| 20260504005601 | 9 | 354 | 0.0 | 1.6 | 0.00 | 0.00 | 0.00 | 52 | 1009.1 |
| 20260504005058 | 10 | 45 | 0.0 | 3.2 | 0.00 | 0.00 | 0.00 | 53 | 1009.1 |
| 20260504004556 | 10 | 11 | 0.0 | 3.2 | 0.00 | 0.00 | 0.00 | 50 | 1008.9 |
| 20260504004053 | 10 | 18 | 0.0 | 1.6 | 0.00 | 0.00 | 0.00 | 49 | 1009.2 |
| 20260504003549 | 11 | 79 | 3.2 | 3.2 | 0.00 | 0.00 | 0.00 | 47 | 1009.0 |
| 20260504003046 | 11 | 18 | 3.2 | 3.2 | 0.00 | 0.00 | 0.00 | 45 | 1008.9 |
| 20260504002542 | 12 | 2 | 3.2 | 4.8 | 0.00 | 0.00 | 0.00 | 44 | 1008.9 |
| 20260504002040 | 12 | 357 | 3.2 | 3.2 | 0.00 | 0.00 | 0.00 | 45 | 1008.9 |
| 20260504001538 | 12 | 53 | 3.2 | 4.8 | 0.00 | 0.00 | 0.00 | 42 | 1009.2 |
| 20260504001034 | 13 | 22 | 3.2 | 4.8 | 0.00 | 0.00 | 0.00 | 39 | 1008.8 |
| 20260504000531 | 13 | 39 | 0.0 | 3.2 | 0.00 | 0.00 | 0.00 | 36 | 1009.0 |
| 20260504000028 | 14 | 52 | 3.2 | 3.2 | 0.00 | 0.00 | 0.00 | 35 | 1009.0 |
| 20260503235527 | 14 | 161 | 1.6 | 3.2 | 0.00 | 0.00 | 0.00 | 33 | 1009.0 |
| 20260503235023 | 15 | 221 | 3.2 | 3.2 | 0.00 | 0.00 | 0.00 | 33 | 1009.0 |
| 20260503234521 | 16 | 156 | 3.2 | 3.2 | 0.00 | 0.00 | 0.00 | 32 | 1009.0 |
| 20260503234019 | 16 | 188 | 3.2 | 4.8 | 0.00 | 0.00 | 0.00 | 31 | 1008.9 |
| 20260503233515 | 16 | 203 | 3.2 | 6.4 | 0.00 | 0.00 | 0.00 | 30 | 1008.9 |
| 20260503233011 | 16 | 193 | 3.2 | 4.8 | 0.00 | 0.00 | 0.00 | 30 | 1008.8 |
| 20260503232508 | 16 | 188 | 4.8 | 6.4 | 0.00 | 0.00 | 0.00 | 31 | 1008.7 |
| 20260503232006 | 16 | 184 | 6.4 | 9.7 | 0.00 | 0.00 | 0.00 | 28 | 1008.9 |
| 20260503231503 | 16 | 228 | 8.0 | 9.7 | 0.00 | 0.00 | 0.00 | 30 | 1008.8 |
| 20260503231000 | 16 | 215 | 3.2 | 6.4 | 0.00 | 0.00 | 0.00 | 32 | 1008.7 |
| 20260503230456 | 16 | 211 | 9.7 | 11.3 | 0.00 | 0.00 | 0.00 | 28 | 1008.7 |
| 20260503225954 | 16 | 209 | 9.7 | 17.7 | 0.00 | 0.00 | 0.00 | 30 | 1008.7 |
| 20260503225450 | 16 | 212 | 14.5 | 16.1 | 0.00 | 0.00 | 0.00 | 29 | 1008.5 |
| 20260503224946 | 16 | 214 | 16.1 | 19.3 | 0.00 | 0.00 | 0.00 | 28 | 1008.7 |
| 20260503224443 | 16 | 228 | 11.3 | 14.5 | 0.00 | 0.00 | 0.00 | 28 | 1008.5 |
| 20260503223941 | 16 | 209 | 12.9 | 14.5 | 0.00 | 0.00 | 0.00 | 30 | 1008.6 |
| 20260503223439 | 16 | 196 | 14.5 | 20.9 | 0.00 | 0.00 | 0.00 | 29 | 1008.6 |
| 20260503222934 | 16 | 214 | 11.3 | 24.1 | 0.00 | 0.00 | 0.00 | 28 | 1008.6 |
| 20260503222433 | 17 | 169 | 8.0 | 9.7 | 0.00 | 0.00 | 0.00 | 32 | 1008.5 |
| 20260503221931 | 16 | 263 | 12.9 | 17.7 | 0.00 | 0.00 | 0.00 | 29 | 1008.7 |
| 20260503221429 | 17 | 251 | 11.3 | 17.7 | 0.00 | 0.00 | 0.00 | 29 | 1008.6 |
| 20260503220925 | 17 | 173 | 8.0 | 11.3 | 0.00 | 0.00 | 0.00 | 29 | 1008.6 |
| 20260503220421 | 16 | 212 | 17.7 | 20.9 | 0.00 | 0.00 | 0.00 | 28 | 1008.7 |
| 20260503215919 | 16 | 221 | 16.1 | 17.7 | 0.00 | 0.00 | 0.00 | 30 | 1008.6 |
| 20260503215416 | 17 | 168 | 9.7 | 16.1 | 0.00 | 0.00 | 0.00 | 27 | 1008.7 |
| 20260503214913 | 17 | 165 | 8.0 | 11.3 | 0.00 | 0.00 | 0.00 | 30 | 1008.7 |
| 20260503214410 | 17 | 242 | 12.9 | 16.1 | 0.00 | 0.00 | 0.00 | 26 | 1008.6 |
| 20260503213908 | 17 | 126 | 0.0 | 12.9 | 0.00 | 0.00 | 0.00 | 32 | 1008.6 |
| 20260503213406 | 16 | 215 | 8.0 | 19.3 | 0.00 | 0.00 | 0.00 | 30 | 1008.8 |
| 20260503212902 | 16 | 183 | 16.1 | 30.6 | 0.00 | 0.00 | 0.00 | 29 | 1008.7 |
| 20260503212400 | 16 | 165 | 16.1 | 22.5 | 0.00 | 0.00 | 0.00 | 29 | 1008.8 |
| 20260503211857 | 17 | 121 | 12.9 | 16.1 | 0.00 | 0.00 | 0.00 | 27 | 1009.1 |
| 20260503211354 | 16 | 138 | 11.3 | 14.5 | 0.00 | 0.00 | 0.00 | 31 | 1008.8 |
| 20260503210848 | 16 | 193 | 14.5 | 22.5 | 0.00 | 0.00 | 0.00 | 30 | 1008.8 |
| 20260503210346 | 16 | 210 | 9.7 | 19.3 | 0.00 | 0.00 | 0.00 | 32 | 1008.9 |
| 20260503205841 | 16 | 191 | 16.1 | 19.3 | 0.00 | 0.00 | 0.00 | 27 | 1009.1 |
| 20260503205338 | 16 | 195 | 9.7 | 22.5 | 0.00 | 0.00 | 0.00 | 29 | 1008.7 |
| 20260503204834 | 16 | 221 | 8.0 | 17.7 | 0.00 | 0.00 | 0.00 | 29 | 1008.9 |
| 20260503204332 | 16 | 206 | 14.5 | 14.5 | 0.00 | 0.00 | 0.00 | 30 | 1008.9 |
| 20260503203829 | 16 | 143 | 17.7 | 20.9 | 0.00 | 0.00 | 0.00 | 29 | 1009.1 |
| 20260503203326 | 16 | 175 | 14.5 | 25.7 | 0.00 | 0.00 | 0.00 | 30 | 1008.8 |
| 20260503202823 | 17 | 125 | 1.6 | 6.4 | 0.00 | 0.00 | 0.00 | 34 | 1008.9 |
| 20260503202321 | 16 | 200 | 11.3 | 12.9 | 0.00 | 0.00 | 0.00 | 31 | 1009.1 |
| 20260503201819 | 16 | 311 | 4.8 | 12.9 | 0.00 | 0.00 | 0.00 | 32 | 1009.2 |
| 20260503201316 | 16 | 263 | 3.2 | 14.5 | 0.00 | 0.00 | 0.00 | 37 | 1009.2 |
| 20260503200814 | 15 | 216 | 11.3 | 25.7 | 0.00 | 0.00 | 0.00 | 32 | 1009.4 |
| 20260503200309 | 15 | 180 | 14.5 | 33.8 | 0.00 | 0.00 | 0.00 | 34 | 1009.5 |
| 20260503195807 | 16 | 183 | 16.1 | 27.4 | 0.00 | 0.00 | 0.00 | 33 | 1009.4 |
| 20260503195304 | 16 | 199 | 22.5 | 29.0 | 0.00 | 0.00 | 0.00 | 31 | 1009.6 |
| 20260503194800 | 16 | 323 | 8.0 | 9.7 | 0.00 | 0.00 | 0.00 | 34 | 1009.6 |
| 20260503194256 | 15 | 150 | 9.7 | 9.7 | 0.00 | 0.00 | 0.00 | 33 | 1009.7 |
| 20260503193753 | 15 | 229 | 17.7 | 33.8 | 0.00 | 0.00 | 0.00 | 32 | 1010.0 |
| 20260503193249 | 16 | 167 | 14.5 | 14.5 | 0.00 | 0.00 | 0.00 | 33 | 1010.0 |
| 20260503192744 | 15 | 320 | 3.2 | 19.3 | 0.00 | 0.00 | 0.00 | 33 | 1010.0 |
| 20260503192240 | 14 | 242 | 3.2 | 20.9 | 0.00 | 0.00 | 0.00 | 32 | 1010.1 |
| 20260503191737 | 14 | 302 | 14.5 | 20.9 | 0.00 | 0.00 | 0.00 | 34 | 1010.3 |
| 20260503191234 | 13 | 195 | 9.7 | 25.7 | 0.00 | 0.00 | 0.00 | 33 | 1010.5 |
| 20260503190731 | 14 | 214 | 25.7 | 38.6 | 0.00 | 0.00 | 0.00 | 34 | 1010.6 |
| 20260503190227 | 15 | 220 | 14.5 | 38.6 | 0.00 | 0.00 | 0.00 | 39 | 1010.6 |
| 20260503185725 | 14 | 241 | 12.9 | 33.8 | 0.00 | 0.00 | 0.00 | 36 | 1010.6 |
| 20260503185220 | 14 | 214 | 17.7 | 25.7 | 0.00 | 0.00 | 0.00 | 38 | 1010.4 |
| 20260503184715 | 14 | 224 | 14.5 | 17.7 | 0.00 | 0.00 | 0.00 | 37 | 1010.6 |
| 20260503184211 | 14 | 157 | 14.5 | 19.3 | 0.00 | 0.00 | 0.00 | 34 | 1010.8 |
| 20260503183708 | 14 | 218 | 17.7 | 29.0 | 0.00 | 0.00 | 0.00 | 36 | 1010.8 |
| 20260503183205 | 14 | 155 | 12.9 | 20.9 | 0.00 | 0.00 | 0.00 | 38 | 1010.7 |
| 20260503182704 | 14 | 180 | 22.5 | 30.6 | 0.00 | 0.00 | 0.00 | 35 | 1010.7 |
| 20260503182202 | 13 | 222 | 3.2 | 22.5 | 0.00 | 0.00 | 0.00 | 35 | 1010.8 |
| 20260503181658 | 14 | 175 | 20.9 | 37.0 | 0.00 | 0.00 | 0.00 | 34 | 1010.8 |
| 20260503181155 | 13 | 157 | 16.1 | 19.3 | 0.00 | 0.00 | 0.00 | 36 | 1010.8 |
| 20260503180651 | 14 | 272 | 11.3 | 17.7 | 0.00 | 0.00 | 0.00 | 41 | 1010.8 |
| 20260503180150 | 13 | 213 | 4.8 | 30.6 | 0.00 | 0.00 | 0.00 | 35 | 1010.8 |
| 20260503175646 | 13 | 285 | 17.7 | 20.9 | 0.00 | 0.00 | 0.00 | 36 | 1010.8 |
| 20260503175143 | 13 | 256 | 19.3 | 32.2 | 0.00 | 0.00 | 0.00 | 35 | 1010.8 |
| 20260503174640 | 12 | 255 | 9.7 | 11.3 | 0.00 | 0.00 | 0.00 | 35 | 1010.8 |
| 20260503174137 | 13 | 269 | 19.3 | 20.9 | 0.00 | 0.00 | 0.00 | 34 | 1011.1 |
| 20260503173632 | 13 | 195 | 20.9 | 27.4 | 0.00 | 0.00 | 0.00 | 36 | 1011.3 |
| 20260503173129 | 13 | 232 | 14.5 | 37.0 | 0.00 | 0.00 | 0.00 | 39 | 1011.3 |
| 20260503172626 | 12 | 258 | 12.9 | 30.6 | 0.00 | 0.00 | 0.00 | 35 | 1011.2 |
| 20260503172124 | 13 | 219 | 22.5 | 27.4 | 0.00 | 0.00 | 0.00 | 37 | 1011.3 |
| 20260503171620 | 12 | 212 | 8.0 | 24.1 | 0.00 | 0.00 | 0.00 | 37 | 1011.5 |
| 20260503171117 | 13 | 221 | 17.7 | 20.9 | 0.00 | 0.00 | 0.00 | 41 | 1011.4 |
| 20260503170614 | 12 | 210 | 14.5 | 27.4 | 0.00 | 0.00 | 0.00 | 37 | 1011.2 |
| 20260503170111 | 11 | 214 | 24.1 | 29.0 | 0.00 | 0.00 | 0.00 | 38 | 1011.4 |
| 20260503151006 | 11 | 216 | 6.4 | 14.5 | 0.00 | 0.00 | 0.00 | 46 | 1012.1 |
| 20260503150502 | 11 | 318 | 3.2 | 19.3 | 0.00 | 0.00 | 0.00 | 41 | 1012.3 |
| 20260503131355 | 8 | 236 | 16.1 | 24.1 | 0.00 | 0.00 | 0.00 | 55 | 1012.4 |
| 20260503130853 | 7 | 244 | 20.9 | 35.4 | 0.00 | 0.00 | 0.00 | 54 | 1012.5 |
| 20260503130350 | 8 | 254 | 22.5 | 24.1 | 0.00 | 0.00 | 0.00 | 53 | 1012.6 |